Location: Waco, TX
(31.5480°N, 97.1670°W)
Time: 19:01:45
(UTC-05:00)

ISS - Pass Details

Date: 14 August 2018
Orbit: 401 x 409 km, 51.6° (Epoch: 19 August)

Event Time Altitude Azimuth Distance (km) Brightness Sun altitude
Rises 18:58:21 0° 324° (NW) 2,316 0.7 14.7°
Reaches altitude 10° 19:00:35 10° 335° (NNW) 1,456 -0.5 14.2°
Maximum altitude 19:03:32 31° 40° (NE) 738 -2.7 13.6°
Drops below altitude 10° 19:06:29 10° 105° (ESE) 1,454 -1.6 13.0°
Sets 19:08:42 0° 116° (ESE) 2,312 -0.6 12.5°
